Back to catalog

SL-8 DEB

AliveUNKNOWN
NORAD 1549·DEBRIS·🇷🇺 Russia

Launched Mar 15, 1965 from Baikonur Cosmodrome

Loading…

Next Passes (next 24 hours)

TLE

FreshSource: Space-Track

Epoch: Sep 14, 2026, 09:22 UTC

1 01549U 65020CV  26257.39096884  .00000136  00000-0  31487-3 0  9997
2 01549  56.1692  32.9417 0836512 227.5194 125.2053 12.64504242826229

Track SL-8 DEB in real time with AllMySat

Download on the App Store